Detroit Metro, MI

7:18 AM EDT on September 24, 2017 (GMT -0400)
Detroit Metro Wayne County

Weather History for KDTW - August, 2013

Change the Weather History Date:

Wednesday, August 21, 2013

  Actual Average Record
Temperature  
Mean Temperature 77 °F 72 °F  
Max Temperature 87 °F 81 °F 100 °F (1955)
Min Temperature 67 °F 62 °F 46 °F (1876)
Degree Days  
Heating Degree Days 0 0  
Month to date heating degree days 8 0  
Since 1 June heating degree days 35 37  
Since 1 July heating degree days 12 2  
Cooling Degree Days 12 7  
Month to date cooling degree days 115 162  
Year to date cooling degree days 681 648  
Since 1 June cooling degree days 578 600  
Growing Degree Days 26 (Base 50)    
Moisture  
Dew Point 65 °F    
Average Humidity 68    
Maximum Humidity 87    
Minimum Humidity 48    
Precipitation  
Precipitation 0.00 in 0.08 in 2.72 in (1890)
Month to date precipitation 2.50 2.08  
Year to date precipitation 27.50 21.51  
Snow  
Snow 0.00 in 0.00 in 0.00 in ()
Month to date snowfall 0.0 0.0  
Since 1 June snowfall 0.0 0.0  
Since 1 July snowfall 0.0 0.0  
Snow Depth 0.00 in    
Sea Level Pressure  
Sea Level Pressure 30.10 in    
Wind  
Wind Speed 8 mph (South)    
Max Wind Speed 16 mph    
Max Gust Speed 21 mph    
Visibility 8 miles    
Events      
T = Trace of Precipitation, MM = Missing Value Source: NWS Daily Summary

Daily Weather History Graph

Daily Weather History Graph

Search for Another Location

Airport or City:

Trip Planner

Search our weather history database for the weather conditions in past years. The results will help you decide how hot, cold, wet, or windy it might be!

Date:

Astronomy

Aug. 21, 2013 Rise Set
Actual Time 6:47 AM EDT 8:24 PM EDT
Civil Twilight 6:17 AM EDT 8:54 PM EDT
Nautical Twilight 5:41 AM EDT 9:29 PM EDT
Astronomical Twilight 5:03 AM EDT 10:08 PM EDT
Moon 8:30 PM EDT (8/21) 7:28 AM EDT (8/21)
Length of Visible Light 14h 36m
Length of Day
13h 37m
Full, 100% of the Moon is Illuminated
Aug 21
Full
Aug 28
Last Quarter
Sep 5
New
Sep 12
First Quarter
Sep 19
Full

Hourly Weather History & Observations

Time (EDT) Temp. Heat Index Dew Point Humidity Pressure Visibility Wind Dir Wind Speed Gust Speed Precip Events Conditions
12:53 AM 71.1 °F - 66.0 °F 84% 30.13 in 8.0 mi South 3.5 mph - N/A   Mostly Cloudy
1:53 AM 71.1 °F - 64.9 °F 81% 30.12 in 8.0 mi South 4.6 mph - N/A   Mostly Cloudy
2:53 AM 69.1 °F - 64.0 °F 84% 30.12 in 8.0 mi South 3.5 mph - N/A   Mostly Cloudy
3:53 AM 68.0 °F - 63.0 °F 84% 30.12 in 7.0 mi South 3.5 mph - N/A   Mostly Cloudy
4:53 AM 68.0 °F - 63.0 °F 84% 30.12 in 8.0 mi South 3.5 mph - N/A   Overcast
5:53 AM 68.0 °F - 63.0 °F 84% 30.12 in 7.0 mi South 3.5 mph - N/A   Overcast
6:53 AM 66.9 °F - 63.0 °F 87% 30.13 in 6.0 mi South 4.6 mph - N/A   Overcast
7:53 AM 69.1 °F - 63.0 °F 81% 30.16 in 5.0 mi South 5.8 mph - N/A   Haze
8:53 AM 72.0 °F - 64.0 °F 76% 30.15 in 7.0 mi South 9.2 mph - N/A   Overcast
9:53 AM 77.0 °F - 64.0 °F 64% 30.15 in 9.0 mi SW 9.2 mph - N/A   Mostly Cloudy
10:53 AM 80.1 °F 82.1 °F 66.0 °F 62% 30.14 in 10.0 mi South 10.4 mph - N/A   Scattered Clouds
11:53 AM 82.0 °F 84.5 °F 66.9 °F 60% 30.14 in 9.0 mi SSW 11.5 mph - N/A   Scattered Clouds
12:53 PM 84.0 °F 86.5 °F 66.9 °F 56% 30.12 in 9.0 mi South 13.8 mph - N/A   Scattered Clouds
1:53 PM 86.0 °F 87.6 °F 64.9 °F 49% 30.10 in 9.0 mi South 13.8 mph - N/A   Scattered Clouds
2:53 PM 84.9 °F 87.1 °F 66.0 °F 53% 30.09 in 9.0 mi SSW 10.4 mph 19.6 mph N/A   Scattered Clouds
3:53 PM 86.0 °F 88.2 °F 66.0 °F 51% 30.06 in 9.0 mi South 11.5 mph 20.7 mph N/A   Scattered Clouds
4:53 PM 84.9 °F 87.1 °F 66.0 °F 53% 30.05 in 9.0 mi South 12.7 mph - N/A   Mostly Cloudy
5:53 PM 84.0 °F 87.0 °F 68.0 °F 58% 30.05 in 9.0 mi SSE 10.4 mph - N/A   Mostly Cloudy
6:53 PM 82.9 °F 85.8 °F 68.0 °F 60% 30.03 in 9.0 mi SSE 10.4 mph - N/A   Partly Cloudy
7:53 PM 81.0 °F 84.1 °F 69.1 °F 67% 30.01 in 9.0 mi SSE 8.1 mph - N/A   Partly Cloudy
8:53 PM 78.1 °F - 66.9 °F 68% 30.01 in 8.0 mi South 5.8 mph - N/A   Partly Cloudy
9:53 PM 75.9 °F - 66.9 °F 74% 30.04 in 8.0 mi South 3.5 mph - N/A   Partly Cloudy
10:53 PM 75.9 °F - 66.9 °F 74% 30.05 in 9.0 mi South 5.8 mph - N/A   Clear
11:53 PM 73.9 °F - 66.9 °F 79% 30.04 in 10.0 mi South 8.1 mph - N/A   Clear